Regional Weather Roundup
Issued by NWS State College, PA

Home | Current Version | Previous Version | Text Only | Print | Product List | Glossary On
Versions: 1 2 3 4 5 6 7 8 9 10 11 12 13 14 15 16 17 18 19 20 21 22 23 24 25 26 27 28 29 30 31 32 33 34 35 36 37 38 39 40 41 42 43 44 45 46 47 48 49 50
000
ASUS41 KCTP 250803
RWRCTP

REGIONAL WEATHER ROUNDUP
NATIONAL WEATHER SERVICE STATE COLLEGE PA
300 AM EST SUN JAN 25 2015

Note: "fair" indicates few or no clouds below 12,000 feet with no
significant weather and/or obstructions to visibility.

* = STATION THAT DOES NOT REPORT PRECIPITATION /E.G. RAIN...SNOW...ETC/
    THUNDER OR FOG.

PAZ002>004-007>009-013>016-020>023-029>032-250900-
WESTERN PENNSYLVANIA

CITY           SKY/WX    TMP DP  RH WIND       PRES   REMARKS
ERIE           CLOUDY    32  29  88 W5        29.69R
MEADVILLE      CLOUDY    32  29  88 W8        29.66R FOG
FRANKLIN*      CLOUDY    30  27  86 W13G18    29.68R
NEW CASTLE     CLOUDY    33  30  89 SW10      29.72R
BEAVER COUNTY  NOT AVBL
BUTLER*        CLOUDY    34  28  80 SW10      29.72R
PITTSBURGH INT LGT SNOW  33  30  88 SW12      29.72R FOG
PITTSBURGH     CLOUDY    32  27  81 SW13      29.72R FOG
INDIANA*       CLOUDY    32  30  93 W13G20    29.72R FOG
LATROBE        CLOUDY    32  32 100 SW16      29.74S FOG
WASHINGTON CO* CLOUDY    34  28  80 SW13      29.77R
$$

PAZ004>006-010>012-017>019-024>028-033>037-041-042-045-046-049>053-250900-
CENTRAL PENNSYLVANIA

CITY           SKY/WX    TMP DP  RH WIND       PRES   REMARKS
BRADFORD       LGT SNOW  29  25  85 W10       29.56R FOG
DUBOIS         CLOUDY    30  29  96 W16       29.61R FOG
CLEARFIELD     CLOUDY    31  28  89 SW9G20    29.62R
JOHNSTOWN      CLOUDY    28  27  96 SW15      29.63R FOG
ALTOONA        CLOUDY    32  28  85 W15G24    29.65R
STATE COLLEGE  CLOUDY    32  29  87 W16       29.62S
WILLIAMSPORT   CLOUDY    34  26  72 W10       29.61R
SELINSGROVE    CLOUDY    36  27  69 W7        29.64R
FT INDIANTOWN  CLOUDY    35  26  70 W7        29.64R
CAPITAL CITY   CLOUDY    37  26  64 W9        29.66R
HARRISBURG     CLOUDY    35  26  69 W3        29.66R
YORK           MOCLDY    35  26  69 W8        29.66R
$$

PAZ038>040-043-044-047-048-054-055-060>062-067>071-250900-
EASTERN PENNSYLVANIA

CITY           SKY/WX    TMP DP  RH WIND       PRES   REMARKS
SCRANTON       CLOUDY    31  23  72 SW12      29.55R
MOUNT POCONO   CLOUDY    27  22  81 W15G25    29.49R
ALLENTOWN      CLOUDY    35  24  64 W9        29.61R
QUAKERTOWN*    NOT AVBL
READING        CLOUDY    35  26  69 W8        29.64R
LANCASTER      PTCLDY    33  25  72 W9        29.65R
COATESVILLE    CLOUDY    36  28  75 W6        29.65R
POTTSTOWN      CLOUDY    35  26  69 W6        29.65R
BLUE BELL      CLOUDY    36  28  75 W3        29.63R
DOYLESTOWN     CLOUDY    32  26  78 W7        29.61R
WILLOW GROVE   NOT AVBL
NORTH PHILA    MOCLDY    36  24  62 W12       29.65R
PHILADELPHIA   MOCLDY    34  26  72 W10       29.67R
$$


USA.gov is the U.S. government's official web portal to all federal, state and local government web resources and services.